Location: F?ge?el
(45.8833°N, 22.5833°E)
Time: 23:46:43
(UTC+00:00)

IRS-1C - Pass Details

Date: 17 November 2025
Orbit: 813 x 814 km, 99.0° (Epoch: 11 December)

Event Time Altitude Azimuth Distance (km) Brightness Sun altitude
Rises 15:55:00 0° 162° (SSE) 3,325 7.3 -10.3°
Reaches altitude 10° 15:57:20 10° 162° (SSE) 2,397 6.6 -10.7°
Maximum altitude 16:02:39 86° 74° (ENE) 823 4.1 -11.6°
Drops below altitude 10° 16:08:00 10° 346° (NNW) 2,414 6.6 -12.5°
Sets 16:10:21 0° 346° (NNW) 3,350 7.3 -12.9°
